Location: Wald
(31.7579°N, 86.6655°W)
Time: 12:29:51
(UTC+00:00)

Lacrosse 5 rocket - Pass Details

Date: 14 July 2020
Orbit: 464 x 632 km, 57.0° (Epoch: 08 August)

Event Time Altitude Azimuth Distance (km) Brightness Sun altitude
Rises 04:34:55 0° 333° (NNW) 2,670 5.9 -33.5°
Reaches altitude 10° 04:37:26 10° 346° (NNW) 1,745 4.7 -33.7°
Enters shadow 04:38:13 14° 353° (N) 1,487 4.2 -33.7°
